This is the latest recevied weather packets stored in our database for station/object WB9TLH-12. If no packets are shown the sender has not sent any weather packets the latest 1 day(s).
| Time | Temp. | Humidity | Pressure | Rain* | Wind** | Luminosity | Snow |
|---|---|---|---|---|---|---|---|
| 1778107008 | 14.44° C | 50% | 1012.6 hPa | 0 mm | - | - | - |
| 1778106708 | 14.44° C | 49% | 1012.8 hPa | 0 mm | - | - | - |
| 1778105807 | 14.44° C | 52% | 1012.7 hPa | 0 mm | - | - | - |
| 1778104906 | 15° C | 51% | 1012.7 hPa | 0 mm | - | - | - |
| 1778104606 | 15° C | 51% | 1012.7 hPa | 0 mm | - | - | - |
| 1778103705 | 15.56° C | 47% | 1012.7 hPa | 0 mm | - | - | - |
| 1778102804 | 15° C | 47% | 1012.6 hPa | 0 mm | - | - | - |
| 1778101903 | 15° C | 47% | 1012.6 hPa | 0 mm | - | - | - |
| 1778101603 | 15° C | 46% | 1012.6 hPa | 0 mm | - | - | - |
| 1778100702 | 15.56° C | 47% | 1012.7 hPa | 0 mm | - | - | - |
| 1778099801 | 15.56° C | 45% | 1012.5 hPa | 0 mm | - | - | - |
| 1778099501 | 15.56° C | 43% | 1012.6 hPa | 0 mm | - | - | - |
| 1778098600 | 15.56° C | 44% | 1012.5 hPa | 0 mm | - | - | - |
| 1778097699 | 15.56° C | 46% | 1012.5 hPa | 0 mm | - | - | - |
| 1778096498 | 15° C | 45% | 1012.6 hPa | 0.25 mm | - | - | - |
| 1778095597 | 15° C | 46% | 1012.7 hPa | 0.25 mm | - | - | - |
| 1778094396 | 15° C | 47% | 1012.7 hPa | 0.25 mm | - | - | - |
| 1778092594 | 14.44° C | 50% | 1012.5 hPa | 0 mm | - | - | - |
| 1778091393 | 15° C | 47% | 1012.6 hPa | 0 mm | - | - | - |
| 1778090492 | 14.44° C | 52% | 1012.5 hPa | 0 mm | - | - | - |
| 1778089291 | 14.44° C | 55% | 1012.6 hPa | 0 mm | - | - | - |
| 1778088390 | 14.44° C | 56% | 1012.8 hPa | 0 mm | - | - | - |
| 1778087189 | 14.44° C | 58% | 1012.9 hPa | 0 mm | - | - | - |
| 1778086588 | 13.89° C | 58% | 1013 hPa | 0 mm | - | - | - |
| 1778086288 | 13.89° C | 60% | 1013.1 hPa | 0 mm | - | - | - |
* Rain latest hour (hover to see other rain measurements)
** Current wind speed in m/s (hover to see current wind gust speed)